Regional Weather Roundup
Issued by NWS Little Rock, AR

Home | Current Version | Previous Version | Graphics & Text | Print | Product List | Glossary On
Versions: 1 2 3 4 5 6 7 8 9 10 11 12 13 14 15 16 17 18 19 20 21 22 23 24 25 26 27
000
ASUS44 KLZK 310105
RWRLZK

WEATHER ROUNDUP FOR ARKANSAS
NATIONAL WEATHER SERVICE LITTLE ROCK AR
800 PM CDT THU OCT 30 2014

NOTE: "FAIR" INDICATES FEW OR NO CLOUDS BELOW 12,000 FEET WITH NO
SIGNIFICANT WEATHER AND/OR OBSTRUCTIONS TO VISIBILITY.

ARZ001-003-010-029-310200-
NORTHWEST ARKANSAS

CITY           SKY/WX    TMP DP  RH WIND       PRES   REMARKS
FAYETTEVILLE   CLEAR     59  40  49 NW8       30.09R
FORT SMITH     CLEAR     58  45  62 W6        30.06R
HARRISON       CLEAR     58  42  55 W7        30.05R
BENTONVILLE    CLEAR     61  37  41 NW5       30.09R
ROGERS         CLEAR     59  38  45 NW5       30.09R
SILOAM SPGS    CLEAR     55  37  50 NW7       30.10R
HIGHFILL       CLEAR     59  39  47 NW7       30.08R
SPRINGDALE     CLEAR     59  41  51 NW5       30.10R
$$

ARZ004-005-016-310200-
NORTH CENTRAL ARKANSAS

CITY           SKY/WX    TMP DP  RH WIND       PRES   REMARKS
BATESVILLE     CLEAR     57  46  67 NW3       30.01S
FLIPPIN        CLEAR     59  39  47 NW5       30.03S
MTN HOME       CLEAR     60  42  51 NW5       30.02R
$$

ARZ040-041-310200-
WEST CENTRAL ARKANSAS

CITY           SKY/WX    TMP DP  RH WIND       PRES   REMARKS
MENA           CLEAR     61  48  63 CALM      30.08R
MOUNT IDA      CLEAR     54  48  80 CALM      30.04R
$$

ARZ009-017-025-026-028-310200-
NORTHEAST ARKANSAS

CITY           SKY/WX    TMP DP  RH WIND       PRES   REMARKS
CORNING        FAIR      57  50  77 E9        30.02S
JONESBORO      CLOUDY    61  49  64 S3        30.00F
NEWPORT        CLOUDY    59  51  74 CALM      30.02S
WALNUT RIDGE   MOCLDY    59  48  67 CALM      29.99F
BLYTHEVILLE    CLOUDY    58  47  66 SE8       30.02F
$$

ARZ022-023-033-042-044-310200-
CENTRAL ARKANSAS

CITY           SKY/WX    TMP DP  RH WIND       PRES   REMARKS
LITTLE ROCK    CLEAR     60  48  64 SW7       30.04S
JACKSONVILLE   CLEAR     55  49  80 CALM      30.03S
SEARCY         CLEAR     53  50  89 CALM      30.04S
HOT SPRINGS    CLEAR     56  47  71 CALM      30.05S
RUSSELLVILLE   CLEAR     54  51  90 CALM      30.03R
$$

ARZ036-310200-
EAST ARKANSAS

CITY           SKY/WX    TMP DP  RH WIND       PRES   REMARKS
WEST MEMPHIS   CLOUDY    59  50  72 S3        30.02S
$$

ARZ050-053-066-070-073-310200-
SOUTHWEST ARKANSAS

CITY           SKY/WX    TMP DP  RH WIND       PRES   REMARKS
ARKADELPHIA    FAIR      55  55 100 CALM      30.06S
CAMDEN         CLEAR     54  50  87 CALM      30.06S
TEXARKANA      CLEAR     61  44  53 SW3       30.07S
DE QUEEN       CLEAR     54  52  93 N5        30.05R
$$

ARZ056-057-069-310200-
SOUTHEAST ARKANSAS

CITY           SKY/WX    TMP DP  RH WIND       PRES   REMARKS
PINE BLUFF     CLEAR     60  55  83 SW5       30.05S
STUTTGART      CLEAR     61  50  67 SW7       30.04F
MONTICELLO     CLOUDY    61  52  72 SW3       30.05S

$$





USA.gov is the U.S. government's official web portal to all federal, state and local government web resources and services.